Погода в Лиде

Погода в Лиде : погода сейчас, прогноз погоды и архив. Всё, что Вы хотите узнать о погоде в Лиде!

Хотите узнать прогноз погоды в Лиде? Тогда Вам сюда: Погода в Лиде

Поиск расширенной информации на нашем сайте:

Другие новости

Новости СМИ2

Главная страница сайта

Новости сайта

02.10.2013

Напоминаем, что на нашем новом сайте вы можете получить высокодетализированные прогнозы погоды по пунктам России, СНГ и мира (включающие важные для авиации метеовеличины, такие как направление и скорость ветра, видимость, явления погоды, количество и форма облачности, нижняя и верхняя граница облачности), а также ознакомиться с разнообразными материалами по авиационной метеорологии и подборкой полезных ссылок на эту тему.

Сайт Метеоцентр.Азия посвящён разработке технологий оптимизации авиаметеорологического обслуживания, включая проектирование и перспективное создание нескольких автоматизированных авиаметеорологических систем:
- система выпуска высокодетальных прогностических карт явлений погоды для нижнего воздушного пространства по России и ближнему зарубежью;
- система верификации прогнозов TAF (выпускаемых синоптиками официальных АМСГ РФ и ближнего зарубежья) и AUTOTAF (выпускаемых сайтом Метеоцентр.Азия) - выявление ошибок, онлайн-сопоставление с фактической погодой METAR, автоматическое внесение коррективов в прогнозы при резком отклонении фактической погоды от прогноза, подсчёт оправдываемости прогнозов по элементам и в целом;
- система обработки, анализа и отображения авиаметеорологической информации для применения провайдерами метеорологической информации.

Рекомендуем: купить автоприцеп для легкового авто

Погода в Лиде - сегодня

Время (UTC), дата Ветер
(°,м/с) 
Видим.   Явления Облачность Т
(°С)
Тd
(°С)
f(%) Тe
(°С)
Pmin
(гПа)
dP
(гПа)
Po
(мм)
O2
(г/м3)
Тmin Tmax R s Состояние
почвы
15 21.01.17 300 (СЗ) 9000 м  дымка  10/8 300 м средняя 
[St|Ac As]
+1.2 -0.5 88 -1  1028.2  1.9  756  303      0.0     
18 21.01.17 250 (З) 9000 м  дымка  10/8 300 м средняя 
[St|Ac As]
+0.6 -1.1 88 1030.5  2.2  758  305    +1.8  0.0  14   
21 21.01.17 310 (СЗ) 9000 м  дымка  5/0 средняя 
[Ac trans]
+0.1 -1.4 90 +1  1031.9  1.2  759  306           
00 22.01.17 290 (З) 9000 м  дымка  10/8 210 м средняя 
[St|Ac As]
-0.1 -1.6 90 -1  1032.8  0.9  760  306           
03 22.01.17 270 (З) 1200 м  дымка  10/10 100 м 
[St]
-0.1 -0.4 98 -2  1032.6  -0.2  759  306        13   
06 22.01.17 240 (ЮЗ) 0400 м  переохл. туман [диам. гололёда 1 мм]  ?/?  
-0.5 -0.5 100 -1  1032  -0.6  759  306  -0.8      13  равномерный
мокрый или
старый снег
100% 
09 22.01.17 260 (З) 0600 м  переохл. туман [диам. гололёда 1 мм]  ?/?  
-0.4 -0.4 100 -3  1032.4  0.4  759  306           
12 22.01.17 250 (З) 2400 м  дымка{туман} [диам. гололёда 1 мм]  10/10 150 м 
[St]
-0.4 -0.7 98 -2  1031.6  -0.8  759  306           
15 22.01.17 250 (З) 0400 м  переохл. туман [диам. гололёда 2 мм]  ?/?  
-0.7 -0.7 100 -3  1030.8  -0.8  758  306           
18 22.01.17 230 (ЮЗ) 1300 м  дымка{туман} [диам. гололёда 2 мм]  10/10 120 м 
[St]
-1 -1.3 98 -3  1030.3  -0.5  758  307    +0.1    13   
21 22.01.17 240 (ЮЗ) 1500 м  дымка{туман} [диам. гололёда 2 мм]  10/10 150 м 
[St]
-1.3 -1.6 98 -4  1029.7  -0.5  757  307           
00 23.01.17 230 (ЮЗ) 1100 м  дымка{туман} [диам. гололёда 2 мм]  10/10 120 м 
[St]
-1.3 -1.6 98 -2  1028.4  -1.3  756  306           
03 23.01.17 250 (З) 1800 м  дымка [диам. гололёда 2 мм]  10/10 150 м 
[St]
-1.7 -2.2 96 -4  1026.9  -1.6  755  306        13   
06 23.01.17 240 (ЮЗ) 3600 м  дымка [диам. гололёда 2 мм]  10/10 100 м 
[St]
-1.8 -2 99 -5  1025.5  -1.4  754  306  -1.8      13  равномерный
мокрый или
старый снег
100% 
09 23.01.17 260 (З) 6000 м  дымка [диам. гололёда 2 мм]  10/10 150 м 
[St]
-1.6 -2.4 94 -4  1024.6  -0.8  753  306           
12 23.01.17 230 (ЮЗ) 8000 м  дымка [диам. гололёда 2 мм]  10/10 150 м 
[St]
-1.6 -3 90 -4  1022.9  -1.7  752  305           
15 23.01.17 230 (ЮЗ) 4100 м  дымка [диам. гололёда 2 мм]  10/10 120 м 
[St]
-1.8 -2.6 94 -5  1021.8  -1.1  751  305           
18 23.01.17 260 (З) 4500 м  дымка [диам. гололёда 2 мм]  10/10 180 м 
[St]
-2.1 -3 94 -4  1020.7  -1.1  751  305    -1.2    13   
21 23.01.17 250 (З) 8000 м  дымка [диам. гололёда 2 мм]  10/10 240 м 
[St]
-1.8 -3.2 90 -4  1020.1  -0.6  750  305           
00 24.01.17 210 (ЮЗ) 5000 м  слаб. снег [диам. гололёда 1 мм]  10/10 240 м 
[Frnb|Ns]
-2 -3.2 91 -3  1019.1  -0.9  749  305           
03 24.01.17 270 (З) 4500 м  слаб. снег [диам. гололёда 1 мм]  9/9 660 м 
[Sc]
-2 -2.9 94 -4  1018.7  -0.4  749  304      0.0  13   
06 24.01.17 250 (З) 5000 м  слаб. снег  10/10 210 м 
[Frnb|Ns]
-1.7 -3.1 90 -4  1018.5  -0.2  749  304  -2.2    0.2  13  равномерный
сухой снег
100% 
09 24.01.17 260 (З) 3500 м  в посл. час снег  10/10 150 м 
[St]
-0.7 -1.4 95 -2  1019.5  1.1  750  303           
12 24.01.17 280 (З) 7000 м  дымка{снег}  10/8 240 м средняя 
[St|Ac As]
+0.8 -0.6 90 1019.5  0.2  750  301           
15 24.01.17 300 (СЗ) 10 км    10/8 420 м средняя 
[St|Ac As]
+0.9 -1.1 86 -1  1020.5  0.9  751  302      0.1     
Время (UTC), дата Ветер
(°,м/с) 
Видим.   Явления Облачность Т
(°С)
Тd
(°С)
f(%) Тe
(°С)
Pmin
(гПа)
dP
(гПа)
Po
(мм)
O2
(г/м3)
Тmin Tmax R s Состояние
почвы

Для получения пояснительной информации подведите курсор к названию столбца.

ПОГОДА в Лиде - архив

Всё, что Вы хотите узнать о погоде в Лиде - удобно и подробно!

Выберите нужную дату (начиная с 1 января 2015* года) и нажмите кнопку "Найти".
Будут отображены архивные сводки погоды по пункту Лида, начиная с указанной даты.


Отображать данные в формате CSV (для использования в таблицах Excel)


Внимание! Наш архив погоды предназначен исключительно для личного некоммерческого использования в познавательных целях. Если Вам необходимы официальные справки о состоянии погоды (для производственных, юридических, коммерческих и т.п. целей), обращайтесь в органы Росгидромета.

*Примечание: данная дата относится к архиву по метеостанциям СССР (Россия, СНГ, Балтия).
Архив по метеостанциям Зарубежной Европы и Азии (кроме Китая) хранится 10 дней, по другим регионам земного шара (Китай, Африка, Америка, Австралия, Океания) - 1 день.

Лида - район местоположения метеостанции


Название, широта, долгота, высота метеостанции:
Лида 53.9°ш. 25.3°д. 157 м над ур. моря [Беларусь]

Дополнительная информация

В oтличие oт бoльшинства пoгoдных сайтoв мы публикуем пoдрoбную метеoинфoрмацию в детальнoм прoфессиoнальнoм фoрмате.

Характеристики температуры и влажнoсти вoздуха измеряются на высoте 2 м в тени вдали oт зданий и деревьев.
Скoрoсть ветра измеряется на высoте 10 м (на урoвне рoста челoвека скoрoсть ветра ниже в 1.5-2 раза). Если метеoстанция нахoдится в гoрoде или в лесу, тo скoрoсть ветра занижена на 2-4 м/с пo сравнению с oткрытым местoм. Скoрoсть ветра над акватoриями крупных рек и oзёр, а также на вершинах хoлмoв на 2-5 м/с выше, чем в oбычных услoвиях.
Атмoсфернoе давление в разных тoчках местнoсти мoжет значительнo oтличаться oт давления на метеoстанции, в зависимoсти oт услoвий рельефа (при пoдъёме на 10 м давление пoнижается примернo на 1 мм рт.ст.).